• Em Portugal
  • Lista de países
  • Para 7 dias
  • Temperatura da água
  • Mapas de satélite
  • Mapa do tempo
  • Widgets de tempo
  • user-avatar
    Iniciar Sessão

    Previsão horária em Snezhnoe

    Hoje, 19 Outubro, Sexta-feira

    Tempo Temperatura Precipitação Vento Pressão Humidade
    00:00 +13°C° 0 mm 3 m/s 741 mmHg 55%
    01:00 +13°C° 0 mm 3 m/s 740 mmHg 57%
    02:00 +12°C° 0 mm 3 m/s 740 mmHg 59%
    03:00 +12°C° 0 mm 2 m/s 740 mmHg 64%
    04:00 +11°C° 0 mm 3 m/s 740 mmHg 66%
    05:00 +11°C° 0 mm 3 m/s 740 mmHg 67%
    06:00 +10°C° 0 mm 3 m/s 740 mmHg 69%
    07:00 +12°C° 0 mm 4 m/s 740 mmHg 66%
    08:00 +13°C° 0 mm 4 m/s 740 mmHg 63%
    09:00 +14°C° 0 mm 5 m/s 740 mmHg 60%
    10:00 +15°C° 0 mm 5 m/s 740 mmHg 55%
    11:00 +17°C° 0 mm 5 m/s 739 mmHg 49%
    12:00 +20°C° 0 mm 5 m/s 739 mmHg 44%
    13:00 +20°C° 0 mm 5 m/s 739 mmHg 42%
    14:00 +21°C° 0 mm 5 m/s 739 mmHg 40%
    15:00 +22°C° 0 mm 5 m/s 739 mmHg 38%
    16:00 +20°C° 0 mm 4 m/s 738 mmHg 42%
    17:00 +19°C° 0 mm 4 m/s 738 mmHg 47%
    18:00 +17°C° 0 mm 3 m/s 738 mmHg 52%
    19:00 +17°C° 0 mm 3 m/s 737 mmHg 56%
    20:00 +16°C° 0 mm 3 m/s 737 mmHg 59%
    21:00 +14°C° 0 mm 3 m/s 737 mmHg 63%
    22:00 +14°C° 0 mm 3 m/s 737 mmHg 67%
    23:00 +13°C° 0 mm 3 m/s 737 mmHg 71%

    Amanhã, 20 Outubro, Sábado

    Tempo Temperatura Precipitação Vento Pressão Humidade
    00:00 +14°C° 0 mm 2 m/s 736 mmHg 75%
    01:00 +13°C° 0 mm 2 m/s 736 mmHg 78%
    02:00 +13°C° 0 mm 2 m/s 736 mmHg 81%
    03:00 +12°C° 0 mm 2 m/s 736 mmHg 84%
    04:00 +12°C° 0 mm 2 m/s 736 mmHg 85%
    05:00 +12°C° 0 mm 1 m/s 736 mmHg 86%
    06:00 +12°C° 0 mm 1 m/s 736 mmHg 87%
    07:00 +13°C° 0 mm 1 m/s 736 mmHg 82%
    08:00 +14°C° 0 mm 1 m/s 736 mmHg 77%
    09:00 +15°C° 0 mm 1 m/s 736 mmHg 73%
    10:00 +16°C° 0.1 mm 1 m/s 736 mmHg 65%
    11:00 +18°C° 0.1 mm 2 m/s 736 mmHg 57%
    12:00 +19°C° 0.1 mm 2 m/s 736 mmHg 50%
    13:00 +20°C° 0.1 mm 2 m/s 736 mmHg 47%
    14:00 +20°C° 0.1 mm 2 m/s 736 mmHg 44%
    15:00 +21°C° 0.1 mm 2 m/s 736 mmHg 42%
    16:00 +20°C° 0 mm 2 m/s 736 mmHg 46%
    17:00 +19°C° 0 mm 2 m/s 736 mmHg 49%
    18:00 +18°C° 0 mm 1 m/s 736 mmHg 53%
    19:00 +18°C° 0 mm 1 m/s 736 mmHg 56%
    20:00 +16°C° 0 mm 1 m/s 736 mmHg 59%
    21:00 +15°C° 0 mm 1 m/s 735 mmHg 61%
    22:00 +15°C° 0 mm 1 m/s 735 mmHg 63%
    23:00 +15°C° 0 mm 1 m/s 735 mmHg 65%

    Depois de amanhã, 21 Outubro, Domingo

    Tempo Temperatura Precipitação Vento Pressão Humidade
    00:00 +14°C° 0 mm 1 m/s 735 mmHg 66%
    01:00 +14°C° 0 mm 1 m/s 735 mmHg 68%
    02:00 +14°C° 0 mm 1 m/s 735 mmHg 69%
    03:00 +13°C° 0 mm 1 m/s 735 mmHg 71%
    04:00 +13°C° 0 mm 1 m/s 735 mmHg 72%
    05:00 +13°C° 0 mm 1 m/s 735 mmHg 74%
    06:00 +11°C° 0 mm 0 m/s 734 mmHg 76%
    07:00 +12°C° 0 mm 0 m/s 735 mmHg 72%
    08:00 +13°C° 0 mm 0 m/s 735 mmHg 68%
    09:00 +14°C° 0 mm 0 m/s 735 mmHg 64%
    10:00 +18°C° 0 mm 1 m/s 735 mmHg 59%
    11:00 +19°C° 0 mm 1 m/s 735 mmHg 54%
    12:00 +21°C° 0 mm 1 m/s 735 mmHg 49%
    13:00 +21°C° 0 mm 1 m/s 735 mmHg 48%
    14:00 +21°C° 0 mm 1 m/s 735 mmHg 47%
    15:00 +20°C° 0 mm 2 m/s 735 mmHg 47%
    16:00 +19°C° 0.5 mm 2 m/s 735 mmHg 54%
    17:00 +18°C° 0.5 mm 2 m/s 736 mmHg 62%
    18:00 +16°C° 0.5 mm 2 m/s 736 mmHg 69%
    19:00 +16°C° 0.9 mm 2 m/s 736 mmHg 72%
    20:00 +15°C° 0.9 mm 2 m/s 736 mmHg 76%
    21:00 +15°C° 0.9 mm 2 m/s 736 mmHg 79%
    22:00 +15°C° 0.6 mm 2 m/s 736 mmHg 81%
    23:00 +15°C° 0.6 mm 2 m/s 736 mmHg 82%

    22 Outubro, Segunda-feira

    Tempo Temperatura Precipitação Vento Pressão Humidade
    00:00 +15°C° 0.6 mm 2 m/s 736 mmHg 83%
    01:00 +15°C° 0.2 mm 2 m/s 736 mmHg 84%
    02:00 +14°C° 0.2 mm 2 m/s 736 mmHg 85%
    03:00 +13°C° 0.2 mm 3 m/s 736 mmHg 86%
    04:00 +13°C° 0.1 mm 3 m/s 736 mmHg 87%
    05:00 +13°C° 0.1 mm 3 m/s 736 mmHg 87%
    06:00 +13°C° 0.1 mm 3 m/s 736 mmHg 87%
    07:00 +13°C° 0.2 mm 3 m/s 736 mmHg 87%
    08:00 +14°C° 0.2 mm 3 m/s 736 mmHg 87%
    09:00 +14°C° 0.2 mm 3 m/s 736 mmHg 87%
    10:00 +15°C° 1.4 mm 2 m/s 736 mmHg 87%
    11:00 +15°C° 1.4 mm 2 m/s 736 mmHg 88%
    12:00 +15°C° 1.4 mm 2 m/s 736 mmHg 88%
    13:00 +15°C° 1.9 mm 2 m/s 736 mmHg 88%
    14:00 +15°C° 1.9 mm 2 m/s 736 mmHg 88%
    15:00 +15°C° 1.9 mm 2 m/s 735 mmHg 88%
    16:00 +15°C° 0.9 mm 2 m/s 735 mmHg 88%
    17:00 +15°C° 0.9 mm 2 m/s 735 mmHg 88%
    18:00 +15°C° 0.9 mm 2 m/s 735 mmHg 89%
    19:00 +15°C° 0.8 mm 2 m/s 735 mmHg 89%
    20:00 +15°C° 0.8 mm 2 m/s 735 mmHg 89%
    21:00 +14°C° 0.8 mm 3 m/s 735 mmHg 90%
    22:00 +13°C° 0.4 mm 3 m/s 735 mmHg 90%
    23:00 +13°C° 0.4 mm 3 m/s 735 mmHg 90%

    23 Outubro, Terça-feira

    Tempo Temperatura Precipitação Vento Pressão Humidade
    00:00 +13°C° 0.4 mm 3 m/s 735 mmHg 89%
    01:00 +14°C° 0.1 mm 2 m/s 735 mmHg 90%
    02:00 +14°C° 0.1 mm 2 m/s 735 mmHg 91%
    03:00 +14°C° 0.1 mm 2 m/s 734 mmHg 92%
    04:00 +13°C° 0 mm 2 m/s 734 mmHg 93%
    05:00 +13°C° 0 mm 2 m/s 734 mmHg 94%
    06:00 +13°C° 0 mm 2 m/s 734 mmHg 95%
    07:00 +14°C° 0 mm 2 m/s 734 mmHg 93%
    08:00 +14°C° 0 mm 2 m/s 734 mmHg 91%
    09:00 +14°C° 0 mm 1 m/s 734 mmHg 89%
    10:00 +15°C° 0 mm 2 m/s 734 mmHg 85%
    11:00 +16°C° 0 mm 2 m/s 735 mmHg 80%
    12:00 +16°C° 0 mm 2 m/s 735 mmHg 76%
    13:00 +17°C° 0.1 mm 2 m/s 734 mmHg 74%
    14:00 +17°C° 0.1 mm 2 m/s 734 mmHg 73%
    15:00 +17°C° 0.1 mm 2 m/s 734 mmHg 71%
    16:00 +17°C° 0.2 mm 2 m/s 734 mmHg 75%
    17:00 +16°C° 0.2 mm 1 m/s 734 mmHg 78%
    18:00 +15°C° 0.2 mm 1 m/s 734 mmHg 82%
    19:00 +15°C° 0.1 mm 1 m/s 734 mmHg 83%
    20:00 +15°C° 0.1 mm 1 m/s 734 mmHg 84%
    21:00 +14°C° 0.1 mm 1 m/s 733 mmHg 85%
    22:00 +14°C° 0 mm 1 m/s 733 mmHg 86%
    23:00 +14°C° 0 mm 1 m/s 733 mmHg 87%

    24 Outubro, Quarta-feira

    Tempo Temperatura Precipitação Vento Pressão Humidade
    00:00 +13°C° 0 mm 1 m/s 733 mmHg 87%
    01:00 +13°C° 0 mm 1 m/s 733 mmHg 87%
    02:00 +13°C° 0 mm 1 m/s 732 mmHg 87%
    03:00 +13°C° 0 mm 1 m/s 732 mmHg 86%
    04:00 +13°C° 0 mm 1 m/s 732 mmHg 87%
    05:00 +13°C° 0 mm 1 m/s 732 mmHg 87%
    06:00 +12°C° 0 mm 1 m/s 731 mmHg 88%
    07:00 +13°C° 0 mm 1 m/s 731 mmHg 85%
    08:00 +13°C° 0 mm 1 m/s 731 mmHg 83%
    09:00 +14°C° 0 mm 1 m/s 731 mmHg 81%
    10:00 +14°C° 0.4 mm 1 m/s 730 mmHg 81%
    11:00 +14°C° 0.4 mm 1 m/s 730 mmHg 81%
    12:00 +14°C° 0.4 mm 1 m/s 730 mmHg 81%
    13:00 +14°C° 1.1 mm 1 m/s 729 mmHg 82%
    14:00 +14°C° 1.1 mm 1 m/s 728 mmHg 83%
    15:00 +14°C° 1.1 mm 1 m/s 728 mmHg 85%
    16:00 +14°C° 0.5 mm 1 m/s 727 mmHg 85%
    17:00 +14°C° 0.5 mm 1 m/s 727 mmHg 85%
    18:00 +13°C° 0.5 mm 2 m/s 727 mmHg 86%
    19:00 +13°C° 0 mm 2 m/s 726 mmHg 85%
    20:00 +13°C° 0 mm 2 m/s 726 mmHg 85%
    21:00 +12°C° 0 mm 2 m/s 726 mmHg 85%
    22:00 +12°C° 0 mm 2 m/s 726 mmHg 84%
    23:00 +10°C° 0 mm 3 m/s 726 mmHg 84%
    Mostrar mais